Lamar, CO

11:33 AM MDT on August 19, 2017 (GMT -0600)
Lamar Municipal

Weather History for KLAA - November, 2011

Change the Weather History Date:

Wednesday, November 23, 2011

  Actual Average Record
Temperature  
Mean Temperature 48 °F 37 °F  
Max Temperature 71 °F 53 °F 79 °F (1921)
Min Temperature 24 °F 21 °F -1 °F (1941)
Degree Days  
Heating Degree Days 17 28  
Month to date heating degree days 531 539  
Since 1 July heating degree days 937 1006  
Cooling Degree Days 0 0  
Month to date cooling degree days 0 0  
Year to date cooling degree days 1533 1121  
Moisture  
Dew Point 23 °F    
Average Humidity 52    
Maximum Humidity 88    
Minimum Humidity 15    
Precipitation  
Precipitation 0.00 in 0.01 in 0.15 in (1922)
Month to date precipitation 0.86  
Snow  
Snow 0.00 in - - ()
Month to date snowfall 0.0  
Snow Depth 0.00 in    
Sea Level Pressure  
Sea Level Pressure 30.13 in    
Wind  
Wind Speed 8 mph (SSW)    
Max Wind Speed 16 mph    
Max Gust Speed 21 mph    
Visibility 10 miles    
Events      
T = Trace of Precipitation, MM = Missing Value Source: NWS Daily Summary

Daily Weather History Graph

Daily Weather History Graph

Search for Another Location

Airport or City:

Trip Planner

Search our weather history database for the weather conditions in past years. The results will help you decide how hot, cold, wet, or windy it might be!

Date:

Astronomy

Nov. 23, 2011 Rise Set
Actual Time 6:39 AM MST 4:34 PM MST
Civil Twilight 6:11 AM MST 5:02 PM MST
Nautical Twilight 5:39 AM MST 5:34 PM MST
Astronomical Twilight 5:07 AM MST 6:06 PM MST
Moon 4:47 AM MST (11/23) 3:16 PM MST (11/23)
Length of Visible Light 10h 51m
Length of Day
9h 54m
Waning Crescent, 3% of the Moon is Illuminated
Nov 23
Waning Crescent
Nov 24
New
Dec 2
First Quarter
Dec 10
Full
Dec 17
Last Quarter

Hourly Weather History & Observations

Time (MST) Temp. Windchill Dew Point Humidity Pressure Visibility Wind Dir Wind Speed Gust Speed Precip Events Conditions
1:53 AM 26.1 °F 19.4 °F 21.0 °F 81% 30.18 in 10.0 mi SW 5.8 mph - N/A   Clear
2:53 AM 26.1 °F 18.4 °F 21.9 °F 84% 30.19 in 10.0 mi SW 6.9 mph - N/A   Clear
3:53 AM 26.1 °F 16.8 °F 21.0 °F 81% 30.19 in 10.0 mi SW 9.2 mph - N/A   Clear
5:53 AM 25.0 °F 15.5 °F 19.9 °F 81% 30.27 in 10.0 mi SSW 9.2 mph - N/A   Clear
6:53 AM 27.0 °F 16.7 °F 21.9 °F 81% 30.28 in 10.0 mi SSW 11.5 mph - N/A   Clear
7:53 AM 33.1 °F 26.9 °F 24.1 °F 70% 30.27 in 10.0 mi SW 6.9 mph - N/A   Clear
8:53 AM 39.9 °F 35.1 °F 25.0 °F 55% 30.26 in 10.0 mi West 6.9 mph - N/A   Clear
9:53 AM 48.9 °F - 25.0 °F 39% 30.24 in 10.0 mi West 5.8 mph - N/A   Clear
10:53 AM 55.9 °F - 26.1 °F 32% 30.20 in 10.0 mi North - - N/A   Clear
11:53 AM 63.0 °F - 23.0 °F 22% 30.15 in 10.0 mi Variable 6.9 mph - N/A   Clear
12:53 PM 66.9 °F - 21.9 °F 18% 30.10 in 10.0 mi SSE 6.9 mph - N/A   Clear
1:53 PM 68.0 °F - 25.0 °F 20% 30.07 in 10.0 mi ENE 10.4 mph - N/A   Clear
2:53 PM 70.0 °F - 21.0 °F 16% 30.04 in 10.0 mi ESE 6.9 mph - N/A   Clear
3:53 PM 68.0 °F - 19.9 °F 16% 30.04 in 10.0 mi SSE 10.4 mph - N/A   Clear
4:53 PM 55.9 °F - 21.9 °F 27% 30.06 in 10.0 mi SE 13.8 mph - N/A   Clear
5:53 PM 51.1 °F - 23.0 °F 33% 30.07 in 10.0 mi SE 13.8 mph - N/A   Clear
6:53 PM 48.9 °F - 23.0 °F 36% 30.07 in 10.0 mi South 8.1 mph - N/A   Clear
8:53 PM 44.1 °F 40.8 °F 26.1 °F 49% 30.05 in 10.0 mi WSW 5.8 mph - N/A   Clear
9:53 PM 39.9 °F 36.7 °F 24.1 °F 53% 30.03 in 10.0 mi West 4.6 mph - N/A   Clear
10:53 PM 36.0 °F 29.0 °F 23.0 °F 59% 30.01 in 10.0 mi WSW 9.2 mph - N/A   Clear
11:53 PM 37.0 °F - 21.9 °F 54% 29.98 in 10.0 mi Calm Calm - N/A   Clear